This is the latest recevied weather packets stored in our database for station/object N5JXS. If no packets are shown the sender has not sent any weather packets the latest 10 day(s).
| Time | Temp. | Humidity | Pressure | Rain* | Wind** | Luminosity | Snow |
|---|---|---|---|---|---|---|---|
| 1777074616 | 16.11° C | 10% | 1009.5 hPa | 0 mm | - | 85 W/m² | - |
| 1777074311 | 16.11° C | 10% | 1009.3 hPa | 0 mm | - | 95 W/m² | - |
| 1777074009 | 15.56° C | 10% | 1009.3 hPa | 0 mm | - | 86 W/m² | - |
| 1777073704 | 15.56° C | 10% | 1009.4 hPa | 0 mm | - | 66 W/m² | - |
| 1777073400 | 15.56° C | 10% | 1009.4 hPa | 0 mm | - | 60 W/m² | - |
| 1777073095 | 16.11° C | 10% | 1009.5 hPa | 0 mm | - | 69 W/m² | - |
| 1777072792 | 16.67° C | 10% | 1009.3 hPa | 0 mm | - | 83 W/m² | - |
| 1777072490 | 17.22° C | 10% | 1009.2 hPa | 0 mm | - | 79 W/m² | - |
| 1777072185 | 17.78° C | 10% | 1008.8 hPa | 0 mm | - | 81 W/m² | - |
| 1777071881 | 17.78° C | 10% | 1009.2 hPa | 0 mm | - | 80 W/m² | - |
| 1777071577 | 17.22° C | 10% | 1009.3 hPa | 0 mm | - | 101 W/m² | - |
| 1777071272 | 17.22° C | 10% | 1008.9 hPa | 0 mm | - | 125 W/m² | - |
| 1777070968 | 16.67° C | 10% | 1009.3 hPa | 0 mm | - | 144 W/m² | - |
| 1777070666 | 16.11° C | 10% | 1009.4 hPa | 0 mm | - | 139 W/m² | - |
| 1777070361 | 16.67° C | 10% | 1009.3 hPa | 0 mm | - | 114 W/m² | - |
| 1777070061 | 16.67° C | 10% | 1009.3 hPa | 0 mm | - | 151 W/m² | - |
| 1777069755 | 17.22° C | 10% | 1009.3 hPa | 0 mm | - | 66 W/m² | - |
| 1777069450 | 17.78° C | 10% | 1009.3 hPa | 0 mm | - | 69 W/m² | - |
| 1777069147 | 18.33° C | 10% | 1009.2 hPa | 0 mm | - | 64 W/m² | - |
| 1777068844 | 18.33° C | 10% | 1009.2 hPa | 0 mm | - | 79 W/m² | - |
| 1777068539 | 18.89° C | 10% | 1009.3 hPa | 0 mm | - | 50 W/m² | - |
| 1777068237 | 18.89° C | 10% | 1009.3 hPa | 0 mm | - | 58 W/m² | - |
| 1777067934 | 18.89° C | 10% | 1009.3 hPa | 0 mm | - | 64 W/m² | - |
| 1777067632 | 19.44° C | 10% | 1008.9 hPa | 0 mm | - | 200 W/m² | - |
| 1777067331 | 18.89° C | 10% | 1009 hPa | 0 mm | - | 221 W/m² | - |
* Rain latest hour (hover to see other rain measurements)
** Current wind speed in m/s (hover to see current wind gust speed)